Soldotna, AK

3:26 PM AKST on February 06, 2016 (GMT -0900)
Soldotna

Weather History for PASX - July, 2014

Change the Weather History Date:

Wednesday, July 23, 2014

  Actual Average Record
Temperature  
Mean Temperature 58 °F -  
Max Temperature 66 °F 63 °F 77 °F (1972)
Min Temperature 51 °F 47 °F 37 °F (1978)
Degree Days  
Heating Degree Days 6    
Growing Degree Days 8 (Base 50)    
Moisture  
Dew Point 49 °F    
Average Humidity 76    
Maximum Humidity 94    
Minimum Humidity 52    
Precipitation  
Precipitation 0.00 in - - ()
Sea Level Pressure  
Sea Level Pressure 29.84 in    
Wind  
Wind Speed 2 mph (West)    
Max Wind Speed 13 mph    
Max Gust Speed -    
Visibility 10 miles    
Events      
Averages and records for this station are not official NWS values.
T = Trace of Precipitation, MM = Missing Value Source: NWS Daily Summary

Daily Weather History Graph

Daily Weather History Graph

Search for Another Location

Airport or City:

Trip Planner

Search our weather history database for the weather conditions in past years. The results will help you decide how hot, cold, wet, or windy it might be!

Date:

Astronomy

Jul. 23, 2014 Rise Set
Actual Time 5:20 AM AKDT 10:58 PM AKDT
Civil Twilight 4:09 AM AKDT 12:09 AM AKDT
Nautical Twilight 2:43 AM AKDT 1:38 AM AKDT
Astronomical Twilight Sun does not rise Sun does not rise
Moon 2:57 AM AKDT (7/23) 8:26 PM AKDT (7/23)
Length of Visible Light 20h 00m
Length of Day
17h 37m
Waning Crescent, 9% of the Moon is Illuminated
Jul 23
Waning Crescent
Jul 26
New
Aug 3
First Quarter
Aug 10
Full
Aug 17
Last Quarter

Hourly Weather History & Observations

Time (AKDT) Temp. Dew Point Humidity Pressure Visibility Wind Dir Wind Speed Gust Speed Precip Events Conditions
12:16 AM 53.6 °F 50.0 °F 88% 29.87 in 10.0 mi Calm Calm - N/A   Overcast
12:36 AM 53.6 °F 50.0 °F 88% 29.87 in 10.0 mi Calm Calm - N/A   Overcast
12:56 AM 53.6 °F 48.2 °F 82% 29.87 in 10.0 mi Calm Calm - N/A   Overcast
1:16 AM 53.6 °F 50.0 °F 88% 29.87 in 10.0 mi Calm Calm - N/A   Overcast
1:36 AM 53.6 °F 50.0 °F 88% 29.87 in 10.0 mi Calm Calm - N/A   Overcast
1:56 AM 53.6 °F 50.0 °F 88% 29.87 in 10.0 mi Calm Calm - N/A   Overcast
2:16 AM 53.6 °F 48.2 °F 82% 29.86 in 10.0 mi Calm Calm - N/A   Overcast
2:36 AM 51.8 °F 48.2 °F 88% 29.86 in 10.0 mi Calm Calm - N/A   Overcast
2:56 AM 51.8 °F 48.2 °F 88% 29.86 in 10.0 mi Calm Calm - N/A   Overcast
3:16 AM 51.8 °F 48.2 °F 88% 29.86 in 10.0 mi Calm Calm - N/A   Overcast
3:36 AM 51.8 °F 48.2 °F 88% 29.86 in 10.0 mi Calm Calm - N/A   Overcast
3:56 AM 51.8 °F 48.2 °F 88% 29.86 in 10.0 mi Calm Calm - N/A   Overcast
4:16 AM 51.8 °F 48.2 °F 88% 29.86 in 10.0 mi Calm Calm - N/A   Overcast
4:36 AM 51.8 °F 48.2 °F 88% 29.85 in 10.0 mi Calm Calm - N/A   Overcast
4:56 AM 51.8 °F 48.2 °F 88% 29.86 in 8.0 mi East 3.5 mph - N/A   Overcast
5:16 AM 51.8 °F 48.2 °F 88% 29.85 in 8.0 mi Calm Calm - N/A   Overcast
5:36 AM 51.8 °F 48.2 °F 88% 29.86 in 5.0 mi Calm Calm - N/A   Overcast
5:56 AM 51.8 °F 48.2 °F 88% 29.85 in 7.0 mi East 4.6 mph - N/A   Overcast
6:16 AM 51.8 °F 48.2 °F 88% 29.85 in 8.0 mi ESE 3.5 mph - N/A   Overcast
6:36 AM 51.8 °F 48.2 °F 88% 29.86 in 8.0 mi Calm Calm - N/A   Overcast
6:56 AM 51.8 °F 48.2 °F 88% 29.86 in 8.0 mi Calm Calm - N/A   Overcast
7:16 AM 51.8 °F 48.2 °F 88% 29.86 in 8.0 mi Calm Calm - N/A   Overcast
7:36 AM 51.8 °F 48.2 °F 88% 29.85 in 8.0 mi Calm Calm - N/A   Overcast
7:56 AM 51.8 °F 48.2 °F 88% 29.85 in 10.0 mi Calm Calm - N/A   Overcast
8:16 AM 51.8 °F 48.2 °F 88% 29.85 in 10.0 mi East 3.5 mph - N/A   Overcast
8:36 AM 51.8 °F 50.0 °F 94% 29.85 in 10.0 mi Calm Calm - N/A   Overcast
8:56 AM 53.6 °F 50.0 °F 88% 29.85 in 10.0 mi Calm Calm - N/A   Overcast
9:16 AM 53.6 °F 50.0 °F 88% 29.85 in 10.0 mi Calm Calm - N/A   Overcast
9:36 AM 53.6 °F 50.0 °F 88% 29.85 in 10.0 mi Calm Calm - N/A   Overcast
9:56 AM 53.6 °F 50.0 °F 88% 29.85 in 10.0 mi Calm Calm - N/A   Overcast
10:16 AM 55.4 °F 50.0 °F 82% 29.85 in 10.0 mi Calm Calm - N/A   Overcast
10:36 AM 55.4 °F 50.0 °F 82% 29.85 in 10.0 mi Calm Calm - N/A   Overcast
10:56 AM 55.4 °F 50.0 °F 82% 29.85 in 10.0 mi NW 3.5 mph - N/A   Overcast
11:16 AM 55.4 °F 50.0 °F 82% 29.84 in 10.0 mi Calm Calm - N/A   Overcast
11:36 AM 57.2 °F 50.0 °F 77% 29.84 in 10.0 mi NW 3.5 mph - N/A   Overcast
11:56 AM 57.2 °F 50.0 °F 77% 29.84 in 10.0 mi WNW 3.5 mph - N/A   Overcast
12:16 PM 57.2 °F 50.0 °F 77% 29.84 in 10.0 mi West 6.9 mph - N/A   Overcast
12:36 PM 57.2 °F 50.0 °F 77% 29.84 in 10.0 mi West 4.6 mph - N/A   Overcast
12:56 PM 59.0 °F 51.8 °F 77% 29.84 in 10.0 mi West 3.5 mph - N/A   Overcast
1:16 PM 60.8 °F 51.8 °F 72% 29.84 in 10.0 mi West 4.6 mph - N/A   Overcast
1:36 PM 60.8 °F 51.8 °F 72% 29.83 in 10.0 mi NW 6.9 mph - N/A   Overcast
1:56 PM 60.8 °F 50.0 °F 68% 29.83 in 10.0 mi West 5.8 mph - N/A   Overcast
2:16 PM 60.8 °F 50.0 °F 68% 29.82 in 10.0 mi WNW 3.5 mph - N/A   Overcast
2:36 PM 62.6 °F 51.8 °F 68% 29.82 in 10.0 mi NW 6.9 mph - N/A   Mostly Cloudy
2:56 PM 62.6 °F 50.0 °F 63% 29.82 in 10.0 mi WNW 5.8 mph - N/A   Mostly Cloudy
3:16 PM 64.4 °F 50.0 °F 59% 29.82 in 10.0 mi West 6.9 mph - N/A   Mostly Cloudy
3:36 PM 64.4 °F 50.0 °F 59% 29.81 in 10.0 mi West 8.1 mph - N/A   Scattered Clouds
3:56 PM 64.4 °F 50.0 °F 59% 29.81 in 10.0 mi West 6.9 mph - N/A   Mostly Cloudy
4:16 PM 66.2 °F 50.0 °F 56% 29.81 in 10.0 mi WNW 12.7 mph - N/A   Mostly Cloudy
4:36 PM 64.4 °F 48.2 °F 56% 29.80 in 0.5 mi NW 9.2 mph - N/A   Mostly Cloudy
4:56 PM 64.4 °F 48.2 °F 56% 29.80 in 10.0 mi NW 8.1 mph - N/A   Mostly Cloudy
5:16 PM 66.2 °F 48.2 °F 52% 29.80 in 10.0 mi WNW 10.4 mph - N/A   Overcast
5:36 PM 64.4 °F 46.4 °F 52% 29.80 in 10.0 mi West 11.5 mph - N/A   Overcast
5:56 PM 62.6 °F 46.4 °F 55% 29.81 in 10.0 mi WSW 8.1 mph - N/A   Overcast
6:16 PM 62.6 °F 46.4 °F 55% 29.81 in 10.0 mi Calm Calm - N/A   Overcast
6:36 PM 64.4 °F 48.2 °F 56% 29.80 in 10.0 mi WNW 10.4 mph - N/A   Overcast
6:56 PM 64.4 °F 48.2 °F 56% 29.80 in 10.0 mi West 10.4 mph - N/A   Overcast
7:16 PM 64.4 °F 48.2 °F 56% 29.80 in 10.0 mi WNW 9.2 mph - N/A   Overcast
7:36 PM 64.4 °F 48.2 °F 56% 29.80 in 10.0 mi West 9.2 mph - N/A   Overcast
7:56 PM 62.6 °F 48.2 °F 59% 29.80 in 10.0 mi West 9.2 mph - N/A   Overcast
8:16 PM 62.6 °F 48.2 °F 59% 29.81 in 10.0 mi WSW 8.1 mph - N/A   Overcast
8:36 PM 60.8 °F 51.8 °F 72% 29.81 in 10.0 mi West 9.2 mph - N/A   Scattered Clouds
8:56 PM 60.8 °F 50.0 °F 68% 29.81 in 10.0 mi West 8.1 mph - N/A   Mostly Cloudy
9:16 PM 60.8 °F 48.2 °F 63% 29.81 in 5.0 mi WSW 9.2 mph - N/A   Overcast
9:36 PM 59.0 °F 48.2 °F 67% 29.82 in 10.0 mi WSW 6.9 mph - N/A   Overcast
9:56 PM 57.2 °F 48.2 °F 72% 29.82 in 10.0 mi WSW 5.8 mph - N/A   Overcast
10:16 PM 57.2 °F 48.2 °F 72% 29.83 in 10.0 mi West 4.6 mph - N/A   Overcast
10:36 PM 57.2 °F 48.2 °F 72% 29.83 in 10.0 mi SW 4.6 mph - N/A   Overcast
10:56 PM 55.4 °F 48.2 °F 77% 29.83 in 10.0 mi SSW 3.5 mph - N/A   Overcast
11:16 PM 55.4 °F 48.2 °F 77% 29.83 in 10.0 mi South 3.5 mph - N/A   Overcast
11:36 PM 55.4 °F 48.2 °F 77% 29.83 in 10.0 mi Calm Calm - N/A   Mostly Cloudy
11:56 PM 53.6 °F 46.4 °F 77% 29.83 in 10.0 mi SE 3.5 mph - N/A   Mostly Cloudy